Location: ???????
(55.5931°N, 39.3286°E)
Time: 20:17:27
(UTC+00:00)

NOSS 3-4 (C) - Pass Details

Date: 14 April 2024
Orbit: 806 x 1406 km, 63.4° (Epoch: 16 May)

Event Time Altitude Azimuth Distance (km) Brightness Sun altitude
Exits shadow 00:16:29 24° 233° (SW) 1,704 4.2 -15.6°
Maximum altitude 00:20:05 87° 320° (NW) 902 3.3 -15.2°
Drops below altitude 10° 00:26:27 10° 52° (NE) 2,754 7.3 -14.6°
Sets 00:29:13 0° 53° (NE) 3,796 8.5 -14.3°
